| time (UTC) | temp C | wind direction | speed KPH | gust KPH | rain 1hr cm | rain 24hr cm | rain mn cm | humidity % | barometer mb |
| 20260507161844 | 15 | 357 | 1.6 | 11.3 | 0.00 | 0.00 | 0.00 | 37 | 1005.0 |
| 20260507161340 | 15 | 308 | 4.8 | 8.0 | 0.00 | 0.00 | 0.00 | 38 | 1005.2 |
| 20260507160837 | 15 | 278 | 3.2 | 8.0 | 0.00 | 0.00 | 0.00 | 36 | 1005.2 |
| 20260507160332 | 15 | 190 | 1.6 | 4.8 | 0.00 | 0.00 | 0.00 | 41 | 1005.1 |
| 20260507155829 | 14 | 123 | 0.0 | 1.6 | 0.00 | 0.00 | 0.00 | 42 | 1005.1 |
| 20260507155325 | 14 | 144 | 1.6 | 11.3 | 0.00 | 0.00 | 0.00 | 40 | 1005.1 |
| 20260507154822 | 15 | 123 | 1.6 | 4.8 | 0.00 | 0.00 | 0.00 | 42 | 1005.1 |
| 20260507154319 | 14 | 347 | 3.2 | 4.8 | 0.00 | 0.00 | 0.00 | 45 | 1005.0 |
| 20260507153816 | 14 | 105 | 1.6 | 8.0 | 0.00 | 0.00 | 0.00 | 43 | 1005.3 |
| 20260507153312 | 14 | 4 | 3.2 | 20.9 | 0.00 | 0.00 | 0.00 | 40 | 1005.6 |
| 20260507152809 | 13 | 115 | 3.2 | 4.8 | 0.00 | 0.00 | 0.00 | 43 | 1005.4 |
| 20260507152306 | 13 | 102 | 1.6 | 14.5 | 0.00 | 0.00 | 0.00 | 47 | 1005.5 |
| 20260507151801 | 13 | 102 | 1.6 | 3.2 | 0.00 | 0.00 | 0.00 | 53 | 1005.6 |
| 20260507151258 | 13 | 16 | 4.8 | 4.8 | 0.00 | 0.00 | 0.00 | 53 | 1005.4 |
| 20260507150755 | 13 | 122 | 1.6 | 3.2 | 0.00 | 0.00 | 0.00 | 54 | 1005.5 |
| 20260507150251 | 13 | 108 | 1.6 | 9.7 | 0.00 | 0.00 | 0.00 | 55 | 1005.6 |
| 20260507145748 | 13 | 81 | 0.0 | 4.8 | 0.00 | 0.00 | 0.00 | 53 | 1005.6 |
| 20260507145244 | 13 | 177 | 3.2 | 4.8 | 0.00 | 0.00 | 0.00 | 53 | 1005.7 |
| 20260507144741 | 14 | 102 | 1.6 | 3.2 | 0.00 | 0.00 | 0.00 | 53 | 1005.6 |
| 20260507144239 | 13 | 170 | 1.6 | 4.8 | 0.00 | 0.00 | 0.00 | 55 | 1005.7 |
| 20260507143735 | 13 | 134 | 0.0 | 1.6 | 0.00 | 0.00 | 0.00 | 57 | 1005.6 |
| 20260507143233 | 13 | 120 | 1.6 | 3.2 | 0.00 | 0.00 | 0.00 | 59 | 1005.8 |
| 20260507142728 | 13 | 85 | 1.6 | 3.2 | 0.00 | 0.00 | 0.00 | 57 | 1005.7 |
| 20260507142225 | 13 | 127 | 0.0 | 1.6 | 0.00 | 0.00 | 0.00 | 60 | 1005.5 |
| 20260507141721 | 13 | 107 | 1.6 | 3.2 | 0.00 | 0.00 | 0.00 | 57 | 1005.7 |
| 20260507141219 | 13 | 354 | 4.8 | 4.8 | 0.00 | 0.00 | 0.00 | 57 | 1005.6 |
| 20260507140714 | 13 | 89 | 1.6 | 3.2 | 0.00 | 0.00 | 0.00 | 59 | 1005.5 |
| 20260507140213 | 13 | 128 | 1.6 | 1.6 | 0.00 | 0.00 | 0.00 | 57 | 1005.4 |
| 20260507135709 | 13 | 92 | 0.0 | 4.8 | 0.00 | 0.00 | 0.00 | 55 | 1005.5 |
| 20260507135207 | 13 | 99 | 0.0 | 3.2 | 0.00 | 0.00 | 0.00 | 58 | 1005.5 |
| 20260507134703 | 12 | 131 | 1.6 | 11.3 | 0.00 | 0.00 | 0.00 | 61 | 1005.6 |
| 20260507134159 | 12 | 120 | 0.0 | 1.6 | 0.00 | 0.00 | 0.00 | 60 | 1005.4 |
| 20260507133655 | 12 | 183 | 1.6 | 1.6 | 0.00 | 0.00 | 0.00 | 60 | 1005.4 |
| 20260507133152 | 12 | 101 | 1.6 | 1.6 | 0.00 | 0.00 | 0.00 | 60 | 1005.4 |
| 20260507132649 | 12 | 104 | 0.0 | 1.6 | 0.00 | 0.00 | 0.00 | 61 | 1005.3 |
| 20260507132145 | 12 | 118 | 1.6 | 1.6 | 0.00 | 0.00 | 0.00 | 61 | 1005.6 |
| 20260507131643 | 12 | 160 | 1.6 | 3.2 | 0.00 | 0.00 | 0.00 | 61 | 1005.8 |
| 20260507131140 | 12 | 104 | 1.6 | 3.2 | 0.00 | 0.00 | 0.00 | 62 | 1005.8 |
| 20260507130636 | 13 | 181 | 3.2 | 3.2 | 0.00 | 0.00 | 0.00 | 62 | 1005.8 |
| 20260507130134 | 13 | 110 | 1.6 | 1.6 | 0.00 | 0.00 | 0.00 | 60 | 1005.8 |
| 20260507125633 | 12 | 104 | 0.0 | 1.6 | 0.00 | 0.00 | 0.00 | 64 | 1005.8 |
| 20260507125131 | 12 | 50 | 1.6 | 3.2 | 0.00 | 0.00 | 0.00 | 66 | 1005.8 |
| 20260507124626 | 12 | 123 | 0.0 | 3.2 | 0.00 | 0.00 | 0.00 | 65 | 1005.8 |
| 20260507124124 | 12 | 105 | 0.0 | 1.6 | 0.00 | 0.00 | 0.00 | 66 | 1005.8 |
| 20260507123622 | 11 | 104 | 1.6 | 3.2 | 0.00 | 0.00 | 0.00 | 67 | 1005.7 |
| 20260507123119 | 11 | 48 | 1.6 | 3.2 | 0.00 | 0.00 | 0.00 | 68 | 1005.9 |
| 20260507122614 | 11 | 124 | 0.0 | 1.6 | 0.00 | 0.00 | 0.00 | 71 | 1005.9 |
| 20260507122110 | 11 | 52 | 1.6 | 3.2 | 0.00 | 0.00 | 0.00 | 71 | 1005.9 |
| 20260507121606 | 10 | 17 | 3.2 | 4.8 | 0.00 | 0.00 | 0.00 | 73 | 1006.1 |
| 20260507121102 | 10 | 44 | 1.6 | 1.6 | 0.00 | 0.00 | 0.00 | 76 | 1006.1 |
| 20260507120558 | 10 | 140 | 1.6 | 1.6 | 0.00 | 0.00 | 0.00 | 78 | 1005.8 |
| 20260507120055 | 10 | 133 | 0.0 | 0.0 | 0.00 | 0.00 | 0.00 | 78 | 1005.9 |
| 20260507115552 | 9 | 98 | 1.6 | 1.6 | 0.00 | 0.00 | 0.00 | 78 | 1006.1 |
| 20260507115048 | 9 | 118 | 0.0 | 0.0 | 0.00 | 0.00 | 0.00 | 80 | 1006.0 |
| 20260507114543 | 9 | 121 | 0.0 | 0.0 | 0.00 | 0.00 | 0.00 | 80 | 1005.9 |
| 20260507114041 | 9 | 89 | 0.0 | 0.0 | 0.00 | 0.00 | 0.00 | 80 | 1005.9 |
| 20260507113538 | 9 | 85 | 0.0 | 1.6 | 0.00 | 0.00 | 0.00 | 80 | 1006.1 |
| 20260507113035 | 9 | 85 | 0.0 | 0.0 | 0.00 | 0.00 | 0.00 | 79 | 1006.0 |
| 20260507112533 | 9 | 119 | 0.0 | 1.6 | 0.00 | 0.00 | 0.00 | 79 | 1005.9 |
| 20260507112029 | 9 | 47 | 0.0 | 0.0 | 0.00 | 0.00 | 0.00 | 80 | 1005.6 |
| 20260507111527 | 8 | 108 | 0.0 | 0.0 | 0.00 | 0.00 | 0.00 | 81 | 1005.8 |
| 20260507111023 | 8 | 100 | 0.0 | 0.0 | 0.00 | 0.00 | 0.00 | 81 | 1005.8 |
| 20260507110520 | 8 | 353 | 1.6 | 3.2 | 0.00 | 0.00 | 0.00 | 81 | 1005.7 |
| 20260507110016 | 8 | 54 | 0.0 | 1.6 | 0.00 | 0.00 | 0.00 | 82 | 1005.8 |
| 20260507105513 | 8 | 125 | 0.0 | 0.0 | 0.00 | 0.00 | 0.00 | 82 | 1005.7 |
| 20260507105009 | 8 | 123 | 0.0 | 1.6 | 0.00 | 0.00 | 0.00 | 82 | 1005.6 |
| 20260507104507 | 8 | 113 | 1.6 | 1.6 | 0.00 | 0.00 | 0.00 | 82 | 1005.4 |
| 20260507104003 | 8 | 127 | 0.0 | 0.0 | 0.00 | 0.00 | 0.00 | 82 | 1005.5 |
| 20260507103500 | 8 | 127 | 0.0 | 1.6 | 0.00 | 0.00 | 0.00 | 81 | 1005.2 |
| 20260507102955 | 8 | 77 | 0.0 | 0.0 | 0.00 | 0.00 | 0.00 | 81 | 1005.1 |
| 20260507102452 | 8 | 5 | 3.2 | 8.0 | 0.00 | 0.00 | 0.00 | 81 | 1004.9 |
| 20260507101949 | 8 | 95 | 0.0 | 0.0 | 0.00 | 0.00 | 0.00 | 82 | 1005.2 |
| 20260507101444 | 8 | 87 | 0.0 | 0.0 | 0.00 | 0.00 | 0.00 | 80 | 1005.0 |
| 20260507100940 | 8 | 99 | 0.0 | 1.6 | 0.00 | 0.00 | 0.00 | 82 | 1005.2 |
| 20260507100438 | 8 | 104 | 0.0 | 1.6 | 0.00 | 0.00 | 0.00 | 81 | 1005.2 |
| 20260507095936 | 8 | 155 | 1.6 | 1.6 | 0.00 | 0.00 | 0.00 | 82 | 1005.0 |
| 20260507095433 | 8 | 105 | 1.6 | 1.6 | 0.00 | 0.00 | 0.00 | 83 | 1005.1 |
| 20260507094930 | 8 | 96 | 0.0 | 1.6 | 0.00 | 0.00 | 0.00 | 83 | 1005.1 |
| 20260507094426 | 8 | 59 | 0.0 | 1.6 | 0.00 | 0.00 | 0.00 | 82 | 1005.2 |
| 20260507093923 | 8 | 96 | 0.0 | 1.6 | 0.00 | 0.00 | 0.00 | 82 | 1005.5 |
| 20260507093421 | 8 | 117 | 0.0 | 0.0 | 0.00 | 0.00 | 0.00 | 84 | 1005.3 |
| 20260507092920 | 8 | 105 | 0.0 | 0.0 | 0.00 | 0.00 | 0.00 | 83 | 1005.5 |
| 20260507092415 | 8 | 111 | 0.0 | 1.6 | 0.00 | 0.00 | 0.00 | 84 | 1005.4 |
| 20260507091912 | 8 | 138 | 0.0 | 0.0 | 0.00 | 0.00 | 0.00 | 84 | 1005.2 |
| 20260507091409 | 8 | 118 | 0.0 | 0.0 | 0.00 | 0.00 | 0.00 | 84 | 1005.3 |
| 20260507090904 | 8 | 142 | 0.0 | 1.6 | 0.00 | 0.00 | 0.00 | 85 | 1005.4 |
| 20260507090401 | 8 | 107 | 0.0 | 0.0 | 0.00 | 0.00 | 0.00 | 83 | 1005.3 |
| 20260507085858 | 8 | 116 | 0.0 | 3.2 | 0.00 | 0.00 | 0.00 | 83 | 1005.6 |
| 20260507085354 | 8 | 128 | 1.6 | 3.2 | 0.00 | 0.00 | 0.00 | 85 | 1005.5 |
| 20260507084852 | 8 | 131 | 0.0 | 1.6 | 0.00 | 0.00 | 0.00 | 85 | 1005.2 |
| 20260507084348 | 8 | 141 | 0.0 | 1.6 | 0.00 | 0.00 | 0.00 | 86 | 1005.2 |
| 20260507083846 | 8 | 120 | 0.0 | 0.0 | 0.00 | 0.00 | 0.00 | 87 | 1005.8 |
| 20260507083342 | 8 | 126 | 0.0 | 0.0 | 0.00 | 0.00 | 0.00 | 86 | 1005.2 |
| 20260507082838 | 8 | 105 | 0.0 | 1.6 | 0.00 | 0.00 | 0.00 | 88 | 1005.3 |
| 20260507082334 | 8 | 123 | 0.0 | 0.0 | 0.00 | 0.00 | 0.00 | 88 | 1005.2 |
| 20260507081831 | 8 | 121 | 0.0 | 0.0 | 0.00 | 0.00 | 0.00 | 87 | 1005.1 |
| 20260507081327 | 8 | 132 | 0.0 | 0.0 | 0.00 | 0.00 | 0.00 | 86 | 1005.0 |
| 20260507080824 | 8 | 120 | 0.0 | 1.6 | 0.00 | 0.00 | 0.00 | 84 | 1005.2 |
| 20260507080320 | 9 | 121 | 0.0 | 1.6 | 0.00 | 0.00 | 0.00 | 84 | 1005.0 |
| 20260507075816 | 9 | 78 | 0.0 | 0.0 | 0.00 | 0.00 | 0.00 | 83 | 1004.9 |
| 20260507075312 | 10 | 120 | 0.0 | 1.6 | 0.00 | 0.00 | 0.00 | 83 | 1004.9 |
| 20260507074809 | 10 | 129 | 0.0 | 0.0 | 0.00 | 0.00 | 0.00 | 81 | 1005.3 |
| 20260507074306 | 10 | 124 | 0.0 | 1.6 | 0.00 | 0.00 | 0.00 | 80 | 1005.1 |
| 20260507073803 | 10 | 132 | 0.0 | 3.2 | 0.00 | 0.00 | 0.00 | 80 | 1005.2 |
| 20260507073300 | 10 | 135 | 0.0 | 1.6 | 0.00 | 0.00 | 0.00 | 80 | 1005.4 |
| 20260507072757 | 10 | 65 | 1.6 | 3.2 | 0.00 | 0.00 | 0.00 | 81 | 1005.4 |
| 20260507072255 | 10 | 75 | 0.0 | 3.2 | 0.00 | 0.00 | 0.00 | 81 | 1004.9 |
| 20260507071752 | 10 | 103 | 0.0 | 3.2 | 0.00 | 0.00 | 0.00 | 82 | 1004.7 |
| 20260507071248 | 10 | 181 | 0.0 | 1.6 | 0.00 | 0.00 | 0.00 | 85 | 1004.7 |
| 20260507070745 | 10 | 108 | 1.6 | 1.6 | 0.00 | 0.00 | 0.00 | 86 | 1004.6 |
| 20260507070242 | 10 | 121 | 0.0 | 0.0 | 0.00 | 0.00 | 0.00 | 87 | 1004.6 |
| 20260507065739 | 10 | 104 | 0.0 | 1.6 | 0.00 | 0.00 | 0.00 | 87 | 1004.5 |
| 20260507065236 | 10 | 97 | 0.0 | 1.6 | 0.00 | 0.00 | 0.00 | 88 | 1004.8 |
| 20260507064733 | 10 | 118 | 0.0 | 1.6 | 0.00 | 0.00 | 0.00 | 88 | 1004.6 |
| 20260507064232 | 10 | 108 | 0.0 | 0.0 | 0.00 | 0.00 | 0.00 | 89 | 1004.4 |
| 20260507063728 | 10 | 110 | 0.0 | 0.0 | 0.00 | 0.00 | 0.00 | 90 | 1004.4 |
| 20260507063225 | 10 | 113 | 0.0 | 0.0 | 0.00 | 0.00 | 0.00 | 89 | 1004.5 |
| 20260507062722 | 10 | 107 | 0.0 | 0.0 | 0.00 | 0.00 | 0.00 | 89 | 1004.7 |
| 20260507062220 | 10 | 110 | 0.0 | 0.0 | 0.00 | 0.00 | 0.00 | 88 | 1004.5 |
| 20260507061718 | 10 | 102 | 0.0 | 0.0 | 0.00 | 0.00 | 0.00 | 88 | 1004.4 |
| 20260507061215 | 10 | 119 | 0.0 | 0.0 | 0.00 | 0.00 | 0.00 | 88 | 1004.4 |
| 20260507060713 | 10 | 119 | 0.0 | 0.0 | 0.00 | 0.00 | 0.00 | 89 | 1004.4 |
| 20260507060209 | 10 | 119 | 0.0 | 0.0 | 0.00 | 0.00 | 0.00 | 88 | 1004.4 |
| 20260507055705 | 10 | 119 | 0.0 | 0.0 | 0.00 | 0.00 | 0.00 | 86 | 1004.4 |
| 20260507055201 | 10 | 118 | 0.0 | 0.0 | 0.00 | 0.00 | 0.00 | 87 | 1004.5 |
| 20260507054657 | 10 | 119 | 0.0 | 0.0 | 0.00 | 0.00 | 0.00 | 86 | 1004.7 |
| 20260507054154 | 10 | 121 | 0.0 | 0.0 | 0.00 | 0.00 | 0.00 | 87 | 1004.8 |
| 20260507053652 | 10 | 114 | 0.0 | 0.0 | 0.00 | 0.00 | 0.00 | 86 | 1005.1 |
| 20260507053150 | 10 | 124 | 0.0 | 0.0 | 0.00 | 0.00 | 0.00 | 87 | 1005.3 |
| 20260507052648 | 10 | 126 | 0.0 | 0.0 | 0.00 | 0.00 | 0.00 | 85 | 1005.0 |
| 20260507052144 | 10 | 41 | 0.0 | 3.2 | 0.00 | 0.00 | 0.00 | 83 | 1005.1 |
| 20260507051642 | 10 | 27 | 1.6 | 1.6 | 0.00 | 0.00 | 0.00 | 86 | 1004.9 |
| 20260507051138 | 10 | 126 | 0.0 | 0.0 | 0.00 | 0.00 | 0.00 | 87 | 1005.0 |
| 20260507050636 | 11 | 151 | 0.0 | 1.6 | 0.00 | 0.00 | 0.00 | 87 | 1005.2 |
| 20260507050132 | 11 | 69 | 0.0 | 1.6 | 0.00 | 0.00 | 0.00 | 85 | 1005.2 |
| 20260507045629 | 11 | 100 | 0.0 | 0.0 | 0.00 | 0.00 | 0.00 | 87 | 1005.1 |
| 20260507045126 | 11 | 123 | 0.0 | 0.0 | 0.00 | 0.00 | 0.00 | 88 | 1004.8 |
| 20260507044623 | 11 | 56 | 1.6 | 3.2 | 0.00 | 0.00 | 0.00 | 86 | 1004.7 |
| 20260507044120 | 11 | 63 | 0.0 | 4.8 | 0.00 | 0.00 | 0.00 | 89 | 1004.7 |
| 20260507043616 | 11 | 129 | 0.0 | 8.0 | 0.00 | 0.00 | 0.00 | 90 | 1004.8 |
| 20260507043113 | 12 | 109 | 0.0 | 0.0 | 0.00 | 0.00 | 0.00 | 92 | 1004.7 |
| 20260507042609 | 12 | 5 | 1.6 | 4.8 | 0.00 | 0.00 | 0.00 | 92 | 1004.8 |
| 20260507042104 | 12 | 116 | 0.0 | 0.0 | 0.00 | 0.00 | 0.00 | 93 | 1004.9 |
| 20260507041601 | 12 | 96 | 0.0 | 0.0 | 0.00 | 0.00 | 0.00 | 93 | 1004.9 |
| 20260507041058 | 12 | 115 | 0.0 | 0.0 | 0.00 | 0.00 | 0.00 | 93 | 1004.9 |
| 20260507040555 | 12 | 126 | 0.0 | 0.0 | 0.00 | 0.00 | 0.00 | 92 | 1004.8 |
| 20260507040051 | 12 | 122 | 0.0 | 0.0 | 0.00 | 0.00 | 0.00 | 92 | 1004.9 |
| 20260507035547 | 12 | 111 | 0.0 | 0.0 | 0.00 | 0.00 | 0.00 | 91 | 1004.9 |
| 20260507035043 | 12 | 153 | 0.0 | 1.6 | 0.00 | 0.00 | 0.00 | 91 | 1005.0 |
| 20260507034540 | 13 | 123 | 0.0 | 0.0 | 0.00 | 0.00 | 0.00 | 90 | 1004.6 |
| 20260507034038 | 13 | 99 | 0.0 | 0.0 | 0.00 | 0.00 | 0.00 | 89 | 1004.6 |
| 20260507033536 | 13 | 112 | 0.0 | 4.8 | 0.00 | 0.00 | 0.00 | 88 | 1004.5 |
| 20260507033033 | 13 | 123 | 1.6 | 1.6 | 0.00 | 0.00 | 0.00 | 88 | 1004.2 |
| 20260507032530 | 13 | 88 | 0.0 | 8.0 | 0.00 | 0.00 | 0.00 | 87 | 1004.3 |
| 20260507032026 | 13 | 156 | 3.2 | 4.8 | 0.00 | 0.00 | 0.00 | 88 | 1004.2 |
| 20260507031522 | 13 | 124 | 0.0 | 1.6 | 0.00 | 0.00 | 0.00 | 90 | 1004.0 |
| 20260507031020 | 14 | 146 | 0.0 | 1.6 | 0.00 | 0.00 | 0.00 | 93 | 1004.0 |
| 20260507030516 | 14 | 35 | 0.0 | 0.0 | 0.00 | 0.00 | 0.00 | 95 | 1003.7 |
| 20260507030015 | 15 | 22 | 1.6 | 1.6 | 0.00 | 0.00 | 0.00 | 95 | 1003.9 |
| 20260507025511 | 15 | 76 | 0.0 | 1.6 | 0.00 | 0.00 | 0.00 | 96 | 1003.8 |
| 20260507025009 | 15 | 119 | 0.0 | 0.0 | 0.00 | 0.00 | 0.00 | 95 | 1003.7 |
| 20260507024506 | 15 | 133 | 1.6 | 1.6 | 0.00 | 0.00 | 0.00 | 95 | 1004.0 |
| 20260507024003 | 15 | 132 | 1.6 | 1.6 | 0.00 | 0.00 | 0.00 | 95 | 1003.8 |
| 20260507023458 | 15 | 119 | 0.0 | 0.0 | 0.00 | 0.00 | 0.00 | 95 | 1003.7 |
| 20260507022956 | 15 | 124 | 0.0 | 1.6 | 0.00 | 0.00 | 0.00 | 95 | 1003.5 |
| 20260507022453 | 15 | 126 | 0.0 | 0.0 | 0.00 | 0.00 | 0.00 | 95 | 1003.6 |
| 20260507021948 | 15 | 134 | 1.6 | 1.6 | 0.00 | 0.00 | 0.00 | 95 | 1003.7 |
| 20260507021444 | 15 | 123 | 0.0 | 0.0 | 0.00 | 0.00 | 0.00 | 95 | 1003.6 |
| 20260507020941 | 15 | 133 | 0.0 | 1.6 | 0.00 | 0.00 | 0.00 | 95 | 1003.4 |
| 20260507020438 | 15 | 125 | 0.0 | 1.6 | 0.00 | 0.00 | 0.00 | 95 | 1003.4 |
| 20260507015935 | 15 | 132 | 0.0 | 0.0 | 0.00 | 0.00 | 0.00 | 95 | 1003.3 |
| 20260507015434 | 15 | 120 | 0.0 | 0.0 | 0.00 | 0.00 | 0.00 | 95 | 1003.4 |
| 20260507014930 | 15 | 118 | 0.0 | 1.6 | 0.00 | 0.00 | 0.00 | 95 | 1003.4 |
| 20260507014427 | 15 | 147 | 0.0 | 1.6 | 0.00 | 0.00 | 0.00 | 95 | 1003.3 |
| 20260507013923 | 15 | 120 | 0.0 | 0.0 | 0.00 | 0.00 | 0.00 | 95 | 1003.3 |
| 20260507013420 | 15 | 124 | 0.0 | 0.0 | 0.00 | 0.00 | 0.00 | 95 | 1003.5 |
| 20260507012918 | 15 | 114 | 0.0 | 0.0 | 0.00 | 0.00 | 0.00 | 95 | 1003.3 |
| 20260507012414 | 15 | 126 | 0.0 | 1.6 | 0.00 | 0.00 | 0.00 | 95 | 1003.4 |
| 20260507011910 | 15 | 120 | 0.0 | 1.6 | 0.00 | 0.00 | 0.00 | 95 | 1003.3 |
| 20260507011407 | 15 | 134 | 1.6 | 1.6 | 0.00 | 0.00 | 0.00 | 95 | 1003.4 |
| 20260507010902 | 15 | 151 | 0.0 | 1.6 | 0.00 | 0.00 | 0.00 | 95 | 1003.3 |
| 20260507010357 | 15 | 147 | 0.0 | 1.6 | 0.00 | 0.00 | 0.00 | 95 | 1003.4 |
| 20260507005855 | 15 | 117 | 1.6 | 1.6 | 0.00 | 0.00 | 0.00 | 95 | 1003.4 |
| 20260507005351 | 15 | 173 | 1.6 | 1.6 | 0.00 | 0.00 | 0.00 | 95 | 1003.5 |
| 20260507004848 | 15 | 128 | 0.0 | 1.6 | 0.00 | 0.00 | 0.00 | 95 | 1003.3 |
| 20260507004345 | 15 | 157 | 0.0 | 1.6 | 0.00 | 0.00 | 0.00 | 95 | 1003.4 |
| 20260507003842 | 15 | 161 | 0.0 | 1.6 | 0.00 | 0.00 | 0.00 | 95 | 1003.3 |
| 20260507003338 | 15 | 167 | 0.0 | 1.6 | 0.00 | 0.00 | 0.00 | 95 | 1003.3 |
| 20260507002833 | 15 | 130 | 0.0 | 1.6 | 0.00 | 0.00 | 0.00 | 95 | 1003.2 |
| 20260507002329 | 15 | 143 | 1.6 | 3.2 | 0.00 | 0.00 | 0.00 | 95 | 1003.3 |
| 20260507001827 | 15 | 95 | 0.0 | 1.6 | 0.00 | 0.00 | 0.00 | 95 | 1003.0 |
| 20260507001323 | 15 | 179 | 1.6 | 3.2 | 0.00 | 0.00 | 0.00 | 95 | 1003.1 |
| 20260507000820 | 15 | 116 | 0.0 | 0.0 | 0.00 | 0.00 | 0.00 | 95 | 1003.1 |
| 20260507000315 | 15 | 107 | 0.0 | 0.0 | 0.00 | 0.00 | 0.00 | 95 | 1003.4 |
| 20260506235812 | 15 | 152 | 1.6 | 1.6 | 0.00 | 0.00 | 0.00 | 95 | 1003.2 |
| 20260506235309 | 15 | 141 | 0.0 | 1.6 | 0.00 | 0.00 | 0.00 | 95 | 1002.8 |
| 20260506234805 | 15 | 131 | 0.0 | 3.2 | 0.00 | 0.00 | 0.00 | 95 | 1003.3 |
| 20260506234302 | 15 | 121 | 0.0 | 1.6 | 0.00 | 0.00 | 0.00 | 95 | 1002.9 |
| 20260506233800 | 15 | 127 | 0.0 | 0.0 | 0.00 | 0.00 | 0.00 | 95 | 1003.0 |
| 20260506233250 | 15 | 120 | 0.0 | 0.0 | 0.00 | 0.00 | 0.00 | 95 | 1003.0 |
| 20260506232747 | 15 | 129 | 0.0 | 0.0 | 0.00 | 0.00 | 0.00 | 95 | 1002.9 |
| 20260506232242 | 15 | 136 | 0.0 | 0.0 | 0.00 | 0.00 | 0.00 | 95 | 1003.0 |
| 20260506231740 | 15 | 144 | 0.0 | 1.6 | 0.00 | 0.00 | 0.00 | 95 | 1002.9 |
| 20260506231238 | 15 | 102 | 3.2 | 3.2 | 0.00 | 0.00 | 0.00 | 95 | 1003.1 |
| 20260506230734 | 15 | 115 | 0.0 | 1.6 | 0.00 | 0.00 | 0.00 | 94 | 1003.1 |
| 20260506230231 | 15 | 222 | 0.0 | 1.6 | 0.00 | 0.00 | 0.00 | 94 | 1003.1 |
| 20260506225728 | 15 | 126 | 0.0 | 1.6 | 0.00 | 0.00 | 0.00 | 94 | 1003.2 |
| 20260506225225 | 15 | 123 | 0.0 | 0.0 | 0.00 | 0.00 | 0.00 | 94 | 1003.1 |
| 20260506224721 | 15 | 153 | 0.0 | 1.6 | 0.00 | 0.00 | 0.00 | 94 | 1003.3 |
| 20260506224218 | 15 | 125 | 0.0 | 1.6 | 0.00 | 0.00 | 0.00 | 94 | 1003.4 |
| 20260506223715 | 15 | 126 | 0.0 | 1.6 | 0.00 | 0.00 | 0.00 | 94 | 1003.4 |
| 20260506223210 | 15 | 213 | 0.0 | 1.6 | 0.00 | 0.00 | 0.00 | 93 | 1003.3 |
| 20260506222708 | 15 | 151 | 0.0 | 8.0 | 0.00 | 0.00 | 0.00 | 93 | 1003.1 |
| 20260506222203 | 15 | 187 | 1.6 | 4.8 | 0.00 | 0.00 | 0.00 | 93 | 1003.1 |
| 20260506221701 | 15 | 193 | 3.2 | 3.2 | 0.00 | 0.00 | 0.00 | 93 | 1003.2 |
| 20260506221159 | 15 | 134 | 0.0 | 3.2 | 0.00 | 0.00 | 0.00 | 93 | 1003.5 |
| 20260506220656 | 15 | 144 | 1.6 | 1.6 | 0.00 | 0.00 | 0.00 | 93 | 1003.4 |
| 20260506220150 | 15 | 133 | 0.0 | 1.6 | 0.00 | 0.00 | 0.00 | 93 | 1003.5 |
| 20260506215648 | 15 | 128 | 1.6 | 4.8 | 0.00 | 0.00 | 0.00 | 92 | 1003.2 |
| 20260506215143 | 15 | 132 | 0.0 | 3.2 | 0.00 | 0.00 | 0.00 | 92 | 1003.5 |
| 20260506214640 | 15 | 148 | 0.0 | 1.6 | 0.00 | 0.00 | 0.00 | 92 | 1003.4 |
| 20260506214137 | 15 | 153 | 0.0 | 1.6 | 0.00 | 0.00 | 0.00 | 92 | 1003.4 |
| 20260506213636 | 15 | 357 | 1.6 | 3.2 | 0.00 | 0.00 | 0.00 | 92 | 1003.3 |
| 20260506213132 | 15 | 162 | 1.6 | 4.8 | 0.00 | 0.00 | 0.00 | 92 | 1003.6 |
| 20260506212630 | 15 | 104 | 0.0 | 4.8 | 0.00 | 0.00 | 0.00 | 92 | 1003.5 |
| 20260506212124 | 15 | 103 | 0.0 | 3.2 | 0.00 | 0.00 | 0.00 | 92 | 1003.5 |
| 20260506211620 | 15 | 129 | 0.0 | 1.6 | 0.00 | 0.00 | 0.00 | 92 | 1003.6 |
| 20260506211117 | 15 | 133 | 0.0 | 4.8 | 0.00 | 0.00 | 0.00 | 91 | 1003.7 |
| 20260506210614 | 15 | 124 | 0.0 | 1.6 | 0.00 | 0.00 | 0.00 | 91 | 1003.7 |
| 20260506210110 | 15 | 138 | 0.0 | 1.6 | 0.00 | 0.00 | 0.00 | 91 | 1004.1 |
| 20260506205608 | 15 | 118 | 1.6 | 4.8 | 0.00 | 0.00 | 0.00 | 92 | 1003.9 |
| 20260506205103 | 15 | 220 | 3.2 | 4.8 | 0.00 | 0.00 | 0.00 | 91 | 1004.0 |
| 20260506204601 | 15 | 196 | 3.2 | 8.0 | 0.00 | 0.00 | 0.00 | 91 | 1004.1 |
| 20260506204057 | 15 | 147 | 0.0 | 3.2 | 0.00 | 0.00 | 0.00 | 91 | 1004.0 |
| 20260506203556 | 15 | 241 | 3.2 | 4.8 | 0.00 | 0.00 | 0.00 | 91 | 1004.2 |
| 20260506203052 | 15 | 153 | 3.2 | 4.8 | 0.00 | 0.00 | 0.00 | 90 | 1004.0 |
| 20260506202550 | 16 | 189 | 0.0 | 3.2 | 0.00 | 0.00 | 0.00 | 90 | 1003.9 |
| 20260506202046 | 16 | 149 | 1.6 | 3.2 | 0.00 | 0.00 | 0.00 | 90 | 1004.1 |
| 20260506201544 | 16 | 168 | 1.6 | 1.6 | 0.00 | 0.00 | 0.00 | 89 | 1004.0 |
| 20260506201040 | 16 | 122 | 0.0 | 3.2 | 0.00 | 0.00 | 0.00 | 89 | 1004.0 |
| 20260506200536 | 16 | 103 | 1.6 | 1.6 | 0.00 | 0.00 | 0.00 | 88 | 1004.2 |
| 20260506200033 | 16 | 109 | 1.6 | 4.8 | 0.00 | 0.00 | 0.00 | 86 | 1004.0 |
| 20260506195530 | 16 | 146 | 0.0 | 1.6 | 0.00 | 0.00 | 0.00 | 86 | 1004.3 |
| 20260506195026 | 16 | 268 | 1.6 | 3.2 | 0.00 | 0.00 | 0.00 | 85 | 1004.4 |
| 20260506194524 | 16 | 125 | 1.6 | 3.2 | 0.00 | 0.00 | 0.00 | 86 | 1004.0 |
| 20260506194020 | 16 | 240 | 1.6 | 4.8 | 0.00 | 0.00 | 0.00 | 86 | 1004.3 |
| 20260506193518 | 16 | 230 | 1.6 | 4.8 | 0.00 | 0.00 | 0.00 | 86 | 1004.2 |
| 20260506193015 | 16 | 138 | 0.0 | 1.6 | 0.00 | 0.00 | 0.00 | 86 | 1004.2 |
| 20260506192511 | 16 | 184 | 0.0 | 1.6 | 0.00 | 0.00 | 0.00 | 87 | 1004.1 |
| 20260506192007 | 16 | 141 | 1.6 | 1.6 | 0.00 | 0.00 | 0.00 | 88 | 1004.2 |
| 20260506191504 | 16 | 130 | 0.0 | 1.6 | 0.00 | 0.00 | 0.00 | 88 | 1004.2 |
| 20260506191001 | 16 | 173 | 0.0 | 1.6 | 0.00 | 0.00 | 0.00 | 88 | 1004.2 |
| 20260506190458 | 17 | 118 | 0.0 | 0.0 | 0.00 | 0.00 | 0.00 | 89 | 1003.9 |
| 20260506185954 | 17 | 125 | 0.0 | 0.0 | 0.00 | 0.00 | 0.00 | 88 | 1004.1 |
| 20260506185452 | 17 | 102 | 0.0 | 0.0 | 0.00 | 0.00 | 0.00 | 87 | 1004.3 |
| 20260506184948 | 17 | 124 | 0.0 | 1.6 | 0.00 | 0.00 | 0.00 | 87 | 1004.4 |
| 20260506184446 | 17 | 113 | 0.0 | 0.0 | 0.00 | 0.00 | 0.00 | 85 | 1004.3 |
| 20260506183943 | 17 | 149 | 1.6 | 1.6 | 0.00 | 0.00 | 0.00 | 83 | 1004.5 |
| 20260506183438 | 17 | 125 | 0.0 | 1.6 | 0.00 | 0.00 | 0.00 | 82 | 1004.6 |
| 20260506182935 | 18 | 126 | 0.0 | 1.6 | 0.00 | 0.00 | 0.00 | 79 | 1004.5 |
| 20260506182432 | 18 | 99 | 1.6 | 1.6 | 0.00 | 0.00 | 0.00 | 77 | 1004.7 |
| 20260506181930 | 19 | 103 | 1.6 | 1.6 | 0.00 | 0.00 | 0.00 | 73 | 1004.8 |
| 20260506181428 | 20 | 142 | 1.6 | 3.2 | 0.00 | 0.00 | 0.00 | 68 | 1004.7 |
| 20260506180924 | 20 | 155 | 1.6 | 3.2 | 0.00 | 0.00 | 0.00 | 63 | 1004.6 |
| 20260506180420 | 20 | 115 | 0.0 | 4.8 | 0.00 | 0.00 | 0.00 | 64 | 1004.5 |
| 20260506175917 | 20 | 174 | 3.2 | 3.2 | 0.00 | 0.00 | 0.00 | 61 | 1004.8 |
| 20260506175414 | 21 | 171 | 3.2 | 4.8 | 0.00 | 0.00 | 0.00 | 59 | 1004.6 |
| 20260506174911 | 21 | 215 | 0.0 | 4.8 | 0.00 | 0.00 | 0.00 | 58 | 1004.6 |
| 20260506174408 | 21 | 207 | 3.2 | 4.8 | 0.00 | 0.00 | 0.00 | 56 | 1004.7 |
| 20260506173900 | 21 | 144 | 1.6 | 3.2 | 0.00 | 0.00 | 0.00 | 56 | 1004.5 |
| 20260506173356 | 21 | 138 | 0.0 | 3.2 | 0.00 | 0.00 | 0.00 | 57 | 1004.5 |
| 20260506172853 | 22 | 241 | 3.2 | 4.8 | 0.00 | 0.00 | 0.00 | 54 | 1004.7 |
| 20260506172349 | 22 | 150 | 4.8 | 9.7 | 0.00 | 0.00 | 0.00 | 52 | 1004.6 |
| 20260506171842 | 22 | 210 | 3.2 | 4.8 | 0.00 | 0.00 | 0.00 | 52 | 1004.4 |
| 20260506171339 | 22 | 200 | 6.4 | 11.3 | 0.00 | 0.00 | 0.00 | 52 | 1004.6 |
| 20260506170836 | 22 | 171 | 4.8 | 8.0 | 0.00 | 0.00 | 0.00 | 52 | 1004.4 |
| 20260506170331 | 22 | 263 | 4.8 | 8.0 | 0.00 | 0.00 | 0.00 | 52 | 1004.5 |
| 20260506165826 | 22 | 185 | 1.6 | 3.2 | 0.00 | 0.00 | 0.00 | 54 | 1004.6 |
| 20260506165323 | 22 | 112 | 1.6 | 8.0 | 0.00 | 0.00 | 0.00 | 53 | 1004.5 |
| 20260506164819 | 22 | 186 | 3.2 | 3.2 | 0.00 | 0.00 | 0.00 | 54 | 1004.7 |
| 20260506164316 | 21 | 142 | 4.8 | 4.8 | 0.00 | 0.00 | 0.00 | 54 | 1005.0 |
| 20260506163813 | 21 | 211 | 3.2 | 8.0 | 0.00 | 0.00 | 0.00 | 55 | 1005.0 |
| 20260506163308 | 21 | 159 | 4.8 | 4.8 | 0.00 | 0.00 | 0.00 | 55 | 1004.9 |
| 20260506162803 | 21 | 173 | 1.6 | 8.0 | 0.00 | 0.00 | 0.00 | 56 | 1005.2 |
| 20260506162301 | 21 | 105 | 3.2 | 3.2 | 0.00 | 0.00 | 0.00 | 57 | 1005.2 |